Dauntless Aviation
Airports South America Argentina
SABE
AEP

Aeroparque Jorge Newbery

Buenos Aires, ARGENTINA

Airport Info
Suggest Updated Information for this Airport

Location

Latitude / Longitude: 34°33'33"S / 58°24'56"W
  34°33.552'S / 58°24.936'W
  -34.5592 / -58.4156

Nearby radio navigation aids

FDO SAN FERNANDO VOR/DME. 132.7° 10.6nm from FDO to field.
OP AEROPARQUE JORGE NEWBERY NDB. 131.1° 4.3nm from OP to field.

Runway Information

Runway 13 /31

Dimensions: 6890 x 131 ft.
Surface: ASP
 
Runway 13
Runway 31
Latitude: -34.553942 -34.563844
Longitude: -58.425247 -58.407506
Elevation: 18 ft. 18 ft.
Runway true heading: 126.3 306.3
 

Instrument Procedures

  Aerodrome Chart

STARs (Standard Terminal Arrivals)

  STAR Rwy 13/16 SARGO7C KOVUK7C TENIL7C BELGRANO7C
  STAR Rwy 13/16 PAGON7C SAN ANTONIO7C ASADA7C VALOS8C
  STAR Rwy 13/16 SURBO7A KUKEN1C PAPIX1C
  STAR Rwy 31 SURBO2B SARGO7D KOVUK7D TENIL7D BELGRANO7D VALOS7D ASADA7D
  STAR Rwy 31 PAGON7D SAN ANTONIO7D

IAPs (Instrument Approach Procedures)

  VOR (DME) ILS Rwy 13
  VOR (DMS) ILS (DME) Rwy 13
  LI ILS (DME) Rwy 13
  VOR (DME) LO LI Rwy 13
  LI LO LI Rwy 13
  LI Rwy 31
  LI Rwy 31

Departure Procedures

  SID Rwy 13/31 LANDA3B VIBAM38 ATOVO38
  SID Rwy 13/31 EZEIZA8
  SID Rwy 13/31 EL PALOMAR 8
  SID Rwy 13/31 KUKEN7 SURBO7 DORVO7 LA PLAYA7
Satellite photo at:
Airport distance calculator
From:
Weather Reports

METAR

SABE

SABE 281000Z 16004KT 130V220 9999 BKN010 12/10 Q1020
SADF
10.6nm W
SADF 281000Z 18004KT 9999 OVC008 12/10 Q1021
SAEZ
16.2nm S
SAEZ 281000Z 17005KT 9999 OVC005 11/11 Q1020
SUCA
32.8nm NE
SUCA 281000Z XXXXXKT 9999 -DZ BKN010 13/11 Q1018

TAF

SABE
TAF SABE 280500Z 2806/2906 20005KT 8000 -DZ BKN010 TX14/2818Z TN12/2811Z BECMG 2813/2815 9999 SCT015 BKN030 BECMG 2816/2819 SCT025
SADF
10.6nm W
TAF SADF 280500Z 2806/2906 22005KT 2000 DZ BR OVC006 TX13/2819Z TN11/2811Z PROB30 2807/2811 OVC004 BECMG 2813/2816 9999 BKN020 BECMG 2820/2823 SCT025
SAEZ
16.2nm S
TAF SAEZ 280500Z 2806/2906 23005KT 7000 -DZ OVC008 TX14/2818Z TN11/2810Z PROB40 2807/2811 2000 BR -DZ OVC004 BECMG 2812/2815 9999 BKN015 BKN025 BECMG 2820/2823 26005KT 9999 SCT030 BECMG 2902/2905 30005KT 8000 NSC
SUCA
32.8nm NE
TAF SUCA 280530Z 2806/2906 24015KT 9999 SCT012 BKN060 TX16/2818Z TN13/2810Z PROB30 TEMPO 2807/2818 21010KT 3500 DZBR BKN010
Safelog

 

Dauntless Aviation

© 2007-2017 Dauntless Aviation, all rights reserved
Information provided via PilotNav comes from a variety of official and unofficial data sources. As errors are possible, do not use PilotNav for primary flight planning purposes. Verify any information that you receive via PilotNav with current and canonical charts and other official documents. The material in this database is subject to database copyrights held by Dauntless Aviation and may not be copied without the express permission of Dauntless Aviation - licenses for use of part of all of this data are available for purchase; enquire via the Dauntless Aviation helpdesk. A number of mechanisms and markers exist in the database to protect against and identify infringement / copyright. Automated queries against this website are stictly prohibited, and all activity is logged and analyzed.